Location: Biharia
(46.4333°N, 22.8000°E)
Time: 00:30:50
(UTC+00:00)

ATLAS 3B R/B - Pass Details

Date: 16 October 2021
Orbit: 989 x 1206 km, 63.8° (Epoch: 25 November)

Event Time Altitude Azimuth Distance (km) Brightness Sun altitude
Rises 16:36:54 0° 218° (SW) 3,701 6.2 -10.5°
Reaches altitude 10° 16:39:26 10° 219° (SW) 2,768 5.5 -10.9°
Maximum altitude 16:45:57 86° 308° (NW) 1,039 2.7 -12.1°
Drops below altitude 10° 16:52:49 10° 38° (NE) 2,908 4.6 -13.2°
Sets 16:55:32 0° 39° (NE) 3,899 5.3 -13.7°
Enters shadow 16:55:38 - 39° (NE) 3,932 5.3 -13.7°
